Location: Starhoo Observatory
(41.8578°N, 70.9669°W)
Time: 01:32:20
(UTC-04:00)

ISS - Visible Passes

Search period start: 18 April 2014 00:00
Search period end: 28 April 2014 00:00
Orbit: 414 x 419 km, 51.6° (Epoch: 17 April)

Date Brightness Start Highest point End Pass type
(mag) Time Alt. Az. Time Alt. Az. Time Alt. Az.
18 Apr -0.9 19:53:50 10° NW 19:56:10 17° N 19:58:30 10° NE visible
18 Apr -2.5 21:30:15 10° NW 21:33:16 46° NNE 21:33:16 46° NNE visible
19 Apr -2.0 20:42:00 10° NW 20:45:05 32° NNE 20:46:49 20° ENE visible
19 Apr -0.5 22:18:43 10° WNW 22:19:43 17° WNW 22:19:43 17° WNW visible
20 Apr -1.5 19:53:43 10° NW 19:56:33 24° NNE 19:59:22 10° ENE visible
20 Apr -3.0 21:30:12 10° WNW 21:33:16 62° WSW 21:33:16 62° WSW visible
21 Apr -3.2 20:41:45 10° NW 20:45:07 73° NNE 20:46:48 27° ESE visible
21 Apr -0.1 22:19:40 10° W 22:19:43 10° W 22:19:43 10° W visible
22 Apr -1.5 21:30:26 10° W 21:33:10 23° SW 21:33:16 23° SW visible
23 Apr -2.3 20:41:36 10° WNW 20:44:46 40° SW 20:46:51 18° SSE visible
25 Apr -0.7 20:42:04 10° W 20:44:04 15° SW 20:46:02 10° SSW visible
